Location: Powder Track
(41.8531°N, 72.3584°W)
Time: 21:11:38
(UTC+00:00)

X-37B - Pass Details

Date: 29 June 2021
Orbit: 383 x 392 km, 45.0° (Epoch: 01 July)

Event Time Altitude Azimuth Distance (km) Brightness Sun altitude
Rises 01:01:47 0° 265° (W) 2,255 5.2 -5.8°
Reaches altitude 10° 01:03:53 10° 270° (W) 1,402 4.2 -6.1°
Maximum altitude 01:06:59 54° 349° (NNW) 469 1.3 -6.6°
Drops below altitude 10° 01:10:05 10° 68° (ENE) 1,403 3.1 -7.0°
Sets 01:12:11 0° 73° (ENE) 2,256 4.1 -7.3°
